Regional Weather Roundup
Issued by NWS

Home | Current Version | Previous Version | Text Only | Print | Product List | Glossary Off
Versions: 1 2 3 4 5 6 7 8 9 10 11 12 13 14 15 16 17 18 19 20 21 22 23 24 25 26 27 28 29 30 31 32 33 34 35 36 37 38 39 40 41 42 43 44 45 46 47 48 49 50

000
ASUS43 KIND 272159
RWRIN

WEATHER ROUNDUP FOR INDIANA
NATIONAL WEATHER SERVICE INDIANAPOLIS IN
600 PM EDT SAT AUG 27 2016

NOTE: "FAIR" INDICATES FEW OR NO CLOUDS BELOW 12,000 FEET WITH NO
SIGNIFICANT WEATHER AND/OR OBSTRUCTIONS TO VISIBILITY.

* - STATION DOES NOT REPORT WEATHER SUCH AS PRECIPITATION OR FOG.

+ - STATION NOT QUALITY CONTROLLED BY THE NATIONAL WEATHER SERVICE.
    USE DATA WITH CAUTION...ESPECIALLY DEWPOINT AND RELATIVE
    HUMIDITY OBSERVATIONS.

INZ001>003-010>013-019-020-272300-
NORTHWEST INDIANA

CITY           SKY/WX    TMP DP  RH WIND       PRES   REMARKS
GARY /AIRPORT/ MOSUNNY   86  72  62 SW9       30.02S
KNOX *+        PTSUNNY   81  50  34 S7        30.03F
MONTICELLO +   MOSUNNY   84  69  60 S8        30.04S
RENSSELAER +   MOSUNNY   82  73  74 S6        30.04S

$$

LMZ046-743>745-272300-
SOUTHERN LAKE MICHIGAN

STATION/POSITION TIME  TEMP    WIND        PRES    WAVE
                       AIR SEA DIR/SP/G            HT
                 (UTC) (F)     (DEG/KT/KT) (MB)    (FT)
BURNS HARBOR     2100   83     220/ 12/ 16 1016.9F
MICHIGAN CITY    2100   82     190/ 10/ 12   N/A
5NW MICH CITY    2100   80 76  220/  4/  6   N/A     1

$$

INZ004-005-014>016-021>024-272300-
NORTH CENTRAL INDIANA

CITY           SKY/WX    TMP DP  RH WIND       PRES   REMARKS
ELKHART        CLOUDY    82  72  69 SW8       30.06R
GOSHEN         CLOUDY    82  70  66 SW8       30.05S
SOUTH BEND     PTSUNNY   81  72  74 S9        30.05S

$$

INZ006>009-017-018-025>027-272300-
NORTHEAST INDIANA

CITY           SKY/WX    TMP DP  RH WIND       PRES   REMARKS
ANGOLA *+      SUNNY     81  75  83 S8        30.08R
FORT WAYNE     PTSUNNY   81  71  71 S8        30.08R

$$

INZ028-029-035-036-043>045-051>053-272300-
WEST CENTRAL INDIANA

CITY           SKY/WX    TMP DP  RH WIND       PRES   REMARKS
CRAWFORDSVL +  MOSUNNY   82  73  73 SW6       30.06S
GREENCASTLE +  SUNNY     82  73  74 CALM      30.07S
LAFAYETTE      PTSUNNY   84  72  67 SW8       30.04S
TERRE HAUTE    SUNNY     87  70  56 SW7       30.05F

$$

INZ030>032-037>040-046>048-054>057-064-065-272300-
CENTRAL INDIANA

CITY           SKY/WX    TMP DP  RH WIND       PRES   REMARKS
INDIANAPOLIS   MOSUNNY   83  73  72 SE7       30.06F
-EAGLE CREEK   SUNNY     84  71  65 VRB5      30.06S
KOKOMO *+      SUNNY     82  73  74 S7        30.06R
MT COMFORT *+  SUNNY     81  72  74 S6        30.08S
SHELBYVILLE    SUNNY     84  72  67 S6        30.07S

$$

INZ033-034-041-042-049-050-058-059-272300-
EAST CENTRAL INDIANA

CITY           SKY/WX    TMP DP  RH WIND       PRES   REMARKS
MUNCIE         SUNNY     83  71  67 SW6       30.08S

$$

INZ060-061-067>069-081>083-085>088-272300-
SOUTHWEST INDIANA

CITY           SKY/WX    TMP DP  RH WIND       PRES   REMARKS
EVANSVILLE     MOSUNNY   89  73  59 SE7       30.05S HX  97
HUNTINGBURG *+ MOSUNNY   88  73  62 CALM      30.06S HX  96

$$

INZ062-063-066-070>080-084-089>092-272300-
SOUTH CENTRAL AND SOUTHEAST INDIANA

CITY           SKY/WX    TMP DP  RH WIND       PRES   REMARKS
BLOOMINGTON    PTSUNNY   86  73  65 VRB5      30.07F
MADISON *+     SUNNY     82  70  65 N3        30.11R

$$





USA.gov is the U.S. government's official web portal to all federal, state and local government web resources and services.